View from above orbital plane
|
View from above satellite
|
Ground track
|
The orbit data is extracted from the following two-line orbital elements,
1 16326U 85113A 13140.80208042 .00002414 00000-0 16454-3 0 6428
2 16326 082.5201 223.2617 0011285 346.8361 013.2570 15.05789613492692
| Epoch (UTC): | 20 May 2013 19:14:59 |
| Eccentricity: | 0.0011285 |
| inclination: | 82.5201° |
| perigee height: | 541 km |
| apogee height: | 557 km |
| right ascension of ascending node: | 223.2617° |
| argument of perigee: | 346.8361° |
| revolutions per day: | 15.05789613 |
| mean anomaly at epoch: | 13.2570° |
| orbit number at epoch: | 49269 |
The dashed part of the orbit path shows where the satellite is in the earth's shadow,
|
|